Regional Weather Roundup
Issued by NWS San Angelo, TX

Home | Current Version | Previous Version | Text Only | Print | Product List | Glossary On
Versions: 1 2 3 4 5 6 7 8 9 10 11 12 13 14 15 16 17 18 19 20 21 22 23 24 25 26 27 28 29 30 31 32 33 34 35 36 37 38 39 40 41 42 43 44 45 46 47 48 49 50
000
ASUS44 KSJT 170910
RWRSJT
WEST CENTRAL TEXAS REGIONAL WEATHER ROUNDUP
NATIONAL WEATHER SERVICE SAN ANGELO TX
400 AM CDT WED SEP 17 2014

NOTE: "FAIR" INDICATES FEW OR NO CLOUDS BELOW 12,000 FEET WITH NO
SIGNIFICANT WEATHER AND/OR OBSTRUCTIONS TO VISIBILITY.

TXZ049-054-064>066-071>073-076>078-098-099-113-114-127-128-139-140-
154-155-168>170-171000
...LOCATIONS ACROSS WEST CENTRAL TEXAS...

CITY           SKY/WX    TMP DP  RH WIND       PRES   REMARKS
SAN ANGELO     CLOUDY    76  68  76 NE3       30.01F
ABILENE        LGT RAIN  75  69  81 SE3       30.02F
DYESS AFB      CLOUDY    73  67  81 S5        30.00F
JUNCTION       PTCLDY    74  68  81 NE3       30.02S
SWEETWATER     CLOUDY    73  69  88 S8        30.06F
BROWNWOOD      CLOUDY    73  68  83 CALM      30.00F
COLEMAN        NOT AVBL
SONORA         PTCLDY    73  70  88 CALM      30.07S
OZONA          FAIR      70  66  88 CALM      30.05F
BRADY            N/A     72  70  94 CALM      30.02S
$$

TEXAS PANHANDLE/OKLAHOMA PANHANDLE

CITY           SKY/WX    TMP DP  RH WIND       PRES   REMARKS
AMARILLO       MOCLDY    63  61  93 SW8       30.09F
BORGER         MOCLDY    69  62  78 S5        30.05S
CANADIAN       PTCLDY    66  64  91 SW3       30.01S
DALHART        CLOUDY    61  58  90 SW6       30.08F
DUMAS          NOT AVBL
GUYMON         NOT AVBL
HEREFORD       CLOUDY    64  63  98 SW5       30.11F
PAMPA          PTSUNNY   63  60  88 SW7       30.06F
PERRYTON       PTCLDY    64  60  88 SW9       30.01F
$$

SOUTHERN PANHANDLE/SOUTH PLAINS/ROLLING PLAINS

CITY           SKY/WX    TMP DP  RH WIND       PRES   REMARKS
LUBBOCK        CLOUDY    68  65  90 S7        30.08F
SNYDER         CLOUDY    70  69  95 NE5       30.05F
CHILDRESS      MOCLDY    70  67  90 SW7       30.03F
SEMINOLE       CLOUDY    67  66  98 CALM      30.10F FOG
$$

PERMIAN BASIN

CITY           SKY/WX    TMP DP  RH WIND       PRES   REMARKS
MIDLAND        MOCLDY    71  66  84 E6        30.05F
ODESSA         MOCLDY    70  65  84 E8        30.07F
WINK           MOCLDY    72  65  78 E7        30.03F
$$

FAR WEST/SOUTHWEST MOUNTAINS/TRANS PECOS

CITY           SKY/WX    TMP DP  RH WIND       PRES   REMARKS
ALPINE         PTSUNNY   63  60  90 W7        30.19S
DRYDEN           N/A     76  69  79 CALM      30.00F
EL PASO        CLOUDY    69  64  84 N9        30.07F
FORT STOCKTON  MOCLDY    69  64  84 S9        30.05F
GUADALUPE PASS FOG       62  62 100 NE28      30.17F VSB 1/2
MARFA          MOCLDY    59  57  94 NW5       30.18S
PECOS          MOSUNNY   69  64  84 NE5       30.03F
$$

DALLAS/FORT WORTH METROPLEX

CITY           SKY/WX    TMP DP  RH WIND       PRES   REMARKS
DFW AIRPORT    CLOUDY    78  70  76 CALM      29.96F
FTW MEACHAM    CLOUDY    77  71  82 S5        29.96F
DAL-EXECUTIVE  MOCLDY    77  70  79 CALM      29.97S
GRAND PRAIRIE  MOCLDY    76  69  78 S3        29.98S
ADDISON        CLOUDY    79  69  72 S3        29.98F
MESQUITE       PTSUNNY   73  70  91 CALM      29.97F
LANCASTER      MOSUNNY   72  68  88 CALM      29.97F
$$

NORTH CENTRAL TEXAS

CITY           SKY/WX    TMP DP  RH WIND       PRES   REMARKS
SHRMAN/DENISON PTSUNNY   73  68  86 CALM      29.99F
GAINESVILLE    PTCLDY    73  69  89 CALM      30.00S
BRIDGEPORT     CLOUDY    72  69  89 CALM      29.99F
DENTON         CLOUDY    73  68  84 CALM      29.96F
WAXAHACHIE     MOSUNNY   71  69  92 S5        29.99S
GRANBURY       PTSUNNY   77  70  80 CALM      29.99S
$$

WESTERN NORTH TEXAS

CITY           SKY/WX    TMP DP  RH WIND       PRES   REMARKS
WICHITA FALLS  MOCLDY    73  68  84 S7        29.97F
VERNON         MOSUNNY   73  67  83 W6        29.99F
BRECKENRIDGE   CLOUDY    78  68  71 CALM      29.98F HAZE
COMANCHE         N/A     74  68  81 CALM      30.00F
$$

CENTRAL AND SOUTH CENTRAL TEXAS

CITY           SKY/WX    TMP DP  RH WIND       PRES   REMARKS
AUSTIN/BERGSTM CLOUDY    76  74  93 CALM      29.97F
WACO           PTCLDY    72  70  93 CALM      29.97F
HILLSBORO      MOSUNNY   73  69  89 CALM      29.97F
TEMPLE         CLOUDY    72  66  83 SE7       29.97F
KILLEEN-GRAY   MOCLDY    73  72  94 S5        29.98F
FORT HOOD      CLOUDY    75  72  90 SE3       29.98F
GEORGETOWN     CLOUDY    75  73  94 CALM      29.99S
LAGO VISTA     CLOUDY    74  73  93 S3        30.00F FOG
SAN MARCOS     CLOUDY    75  70  83 CALM      29.98F
NEW BRAUNFELS  CLOUDY    76  73  91 S5        29.96F
RANDOLPH AFB   CLOUDY    75  74  95 E5        29.97F
SAN ANTONIO    LGT RAIN  78  75  90 E5        29.97F
STINSON        CLOUDY    78  75  90 E6        29.94F
PLEASANTON     NOT AVBL
LA GRANGE      MOCLDY    75  75  98 CALM      29.95S
GIDDINGS       CLOUDY    74  73  96 CALM      30.00F
$$

EAST TEXAS

CITY           SKY/WX    TMP DP  RH WIND       PRES   REMARKS
PARIS          CLOUDY    72  64  78 SE7       29.99F
CLARKSVILLE    NOT AVBL
TYLER          PTCLDY    73  70  90 S3        29.97F
LONGVIEW       CLEAR     72  69  90 CALM      29.97F
PALESTINE      MOSUNNY   73  72  99 CALM      29.98F
NACOGDOCHES    CLOUDY    72  70  94 CALM      29.98F VSB 1/2
$$

TEXAS HILL COUNTRY AND EDWARDS PLATEAU

CITY           SKY/WX    TMP DP  RH WIND       PRES   REMARKS
LLANO          CLOUDY    73  72  94 CALM      30.03S
HORSESHOE BAY  CLOUDY    74  74 100 CALM      29.99F
KERRVILLE      CLOUDY    74  72  92 E5        30.01F
FREDERICKSBRG  CLOUDY    73  72  95 CALM      30.01F
ROCKSPRINGS    CLOUDY    73  70  88 SE5       30.05F
HONDO          CLOUDY    78  74  87 SE8       29.98F
UVALDE         MOSUNNY   77  75  92 E7        29.97F
DEL RIO        MOCLDY    77  73  87 E5        29.95F
$$

SOUTHEAST TEXAS

CITY           SKY/WX    TMP DP  RH WIND       PRES   REMARKS
COLLEGE STN    CLOUDY    75  74  96 SE3       29.97S
CALDWELL       CLOUDY    73  73 100 CALM      30.00S FOG
CROCKETT       MOSUNNY   75  75 100 CALM      30.00S FOG
BRENHAM        CLOUDY    77  76  95 CALM      29.97S
HUNTSVILLE     MOCLDY    76  74  93 S3        29.97F
CONROE         FOG       75  75 100 CALM      29.97F VSB 1
HOUSTON BUSH   CLOUDY    76  75  97 CALM      29.95F
HOUSTON HOBBY  CLOUDY    78  76  93 CALM      29.94F
PERLAND        CLOUDY    79  76  90 CALM      29.95F
WHARTON        PTSUNNY   75  74  97 CALM      29.95F FOG
$$

THE UPPER TEXAS COAST

CITY           SKY/WX    TMP DP  RH WIND       PRES   REMARKS
ORANGE         CLOUDY   N/A N/A N/A CALM      29.96F
PORT ARTHUR    CLOUDY    77  74  90 CALM      29.94F
GALVESTON      CLOUDY    81  78  91 S5        29.95F
ANGLETON       CLOUDY    76  75  97 CALM      29.94F
BAY CITY       PTSUNNY   77  77 100 CALM      29.94S
$$

TEXAS COASTAL BEND, RIO GRANDE PLAINS DEEP SOUTH TEXAS

CITY           SKY/WX    TMP DP  RH WIND       PRES   REMARKS
VICTORIA       FOG       76  75  97 E3        29.94F VSB 3/4
BEEVILLE       CLOUDY    78  76  94 S6        29.94F
ROCKPORT       CLEAR     79  76  90 S3        29.93F
PORT ARANSAS   MOSUNNY   82  76  81 S10       29.93F
PORT LAVACA    MOSUNNY   77  75  94 S3        29.93F
CORPUS CHRISTI PTCLDY    77  75  93 S5        29.93F
KINGSVILLE NAS PTCLDY    78  77  96 S7        29.93F
COTULLA        LGT RAIN N/A N/A N/A SE3       29.94F
LAREDO         MOCLDY    78  78 100 SE6       29.95F
BROWNSVILLE    PTCLDY    78  76  93 S6        29.93F
PORT ISABEL    CLEAR     79  76  90 S7        29.93F
HEBBRONVILLE     N/A     76  74  94 SE5       29.95F
MCALLEN        CLEAR     77  76  96 S5        29.93F
WESLACO        CLEAR     77  73  88 S7        29.92F
FALFURRIAS     PTSUNNY   60  58  92 CALM      29.93F
EDINBURG       SUNNY     78  74  88 CALM      29.94S
$$


USA.gov is the U.S. government's official web portal to all federal, state and local government web resources and services.